Weather History for Portland Troutdale, OR

Change the Weather History Date:

Thursday, October 24, 2013

  Actual Average Record
Temperature  
Mean Temperature 57 °F 51 °F  
Max Temperature 67 °F 61 °F 74 °F (1959)
Min Temperature 46 °F 42 °F 33 °F (2008)
Degree Days  
Heating Degree Days 8 14  
Month to date heating degree days 252 246  
Cooling Degree Days 0 0  
Month to date cooling degree days 0 0  
Growing Degree Days 6 (Base 50)    
Moisture  
Dew Point 48 °F    
Average Humidity 78    
Maximum Humidity 100    
Minimum Humidity 56    
Precipitation  
Precipitation 0.00 in 0.16 in 1.58 in (2010)
Month to date precipitation 1.32 2.68  
Year to date precipitation 22.24 31.25  
Snow  
Snow 0.00 in - - ()
Month to date snowfall 0.0  
Since 1 July snowfall 0.0  
Since 1 September snowfall 0.0  
Snow Depth 0.00 in    
Sea Level Pressure  
Sea Level Pressure 30.02 in    
Wind  
Wind Speed 2 mph (West)    
Max Wind Speed 9 mph    
Max Gust Speed 12 mph    
Visibility 6 miles    
Events Fog    
T = Trace of Precipitation, MM = Missing Value Source: NWS Daily Summary

Daily Weather History Graph

Daily Weather History Graph

Search for Another Location

Airport:

Trip Planner

Search our weather history database for the weather conditions in past years. The results will help you decide how hot, cold, wet, or windy it might be!

Date:

Astronomy

Oct. 24, 2013 Rise Set
Actual Time 7:38 AM PDT 6:08 PM PDT
Civil Twilight 7:08 AM PDT 6:38 PM PDT
Nautical Twilight 6:33 AM PDT 7:13 PM PDT
Astronomical Twilight 5:59 AM PDT 7:47 PM PDT
Moon 10:31 PM PDT (10/24) 12:49 PM PDT (10/24)
Length of Visible Light 11h 30m
Length of Day
10h 29m
Waning Gibbous, 70% of the Moon is Illuminated
Oct 24
Waning Gibbous
Oct 26
Last Quarter
Nov 3
New
Nov 9
First Quarter
Nov 17
Full

Hourly Weather History & Observations

Time (PDT) Temp. Windchill Dew Point Humidity Pressure Visibility Wind Dir Wind Speed Gust Speed Precip Events Conditions
12:53 AM 55.0 °F - 48.9 °F 80% 29.98 in 10.0 mi WNW 5.8 mph - N/A   Clear
1:53 AM 52.0 °F - 48.9 °F 89% 29.99 in 10.0 mi Calm Calm - N/A   Clear
2:53 AM 51.1 °F - 48.0 °F 89% 29.99 in 9.0 mi West 3.5 mph - N/A   Clear
3:53 AM 48.9 °F - 46.9 °F 93% 29.99 in 9.0 mi Calm Calm - N/A   Clear
4:42 AM 48.2 °F - 46.4 °F 93% 30.00 in 7.0 mi Calm Calm - N/A   Scattered Clouds
4:53 AM 46.9 °F - 45.0 °F 93% 30.00 in 7.0 mi West 4.6 mph - N/A   Scattered Clouds
5:03 AM 46.4 °F 45.2 °F 44.6 °F 93% 30.00 in 4.0 mi Variable 3.5 mph - N/A   Mostly Cloudy
5:17 AM 46.4 °F 44.3 °F 46.4 °F 100% 30.00 in 1.8 mi West 4.6 mph - N/A   Overcast
5:34 AM 46.4 °F - 44.6 °F 93% 30.00 in 2.5 mi Calm Calm - N/A   Overcast
5:46 AM 46.4 °F 45.2 °F 44.6 °F 93% 30.00 in 1.0 mi West 3.5 mph - N/A   Overcast
5:53 AM 46.9 °F - 45.0 °F 93% 30.00 in 0.8 mi Calm Calm - N/A   Mist
6:53 AM 46.9 °F - 45.0 °F 93% 30.01 in 0.2 mi Calm Calm - N/A Fog Fog
7:53 AM 46.9 °F - 46.0 °F 97% 30.01 in 0.2 mi Calm Calm - N/A Fog Fog
8:53 AM 48.0 °F - 46.0 °F 93% 30.03 in 0.2 mi WNW 3.5 mph - N/A Fog Fog
9:53 AM 48.9 °F - 48.0 °F 97% 30.04 in 1.0 mi Variable 3.5 mph - N/A   Mist
10:06 AM 50.0 °F - 48.2 °F 94% 30.04 in 1.8 mi WNW 3.5 mph - N/A   Overcast
10:19 AM 50.0 °F - 48.2 °F 94% 30.04 in 2.5 mi Calm Calm - N/A   Overcast
10:53 AM 51.1 °F - 48.9 °F 92% 30.04 in 2.0 mi Variable 4.6 mph - N/A   Overcast
11:00 AM 51.8 °F - 48.2 °F 88% 30.04 in 4.0 mi West 4.6 mph - N/A   Overcast
11:44 AM 53.6 °F - 48.2 °F 82% 30.04 in 8.0 mi WNW 4.6 mph - N/A   Scattered Clouds
11:53 AM 54.0 °F - 50.0 °F 86% 30.04 in 9.0 mi Variable 3.5 mph - N/A   Scattered Clouds
12:53 PM 57.9 °F - 50.0 °F 75% 30.02 in 10.0 mi West 5.8 mph - N/A   Clear
1:53 PM 62.1 °F - 50.0 °F 65% 30.00 in 10.0 mi West 5.8 mph - N/A   Clear
2:53 PM 64.9 °F - 50.0 °F 58% 29.99 in 10.0 mi West 4.6 mph - N/A   Clear
3:53 PM 66.0 °F - 50.0 °F 56% 29.99 in 10.0 mi West 3.5 mph - N/A   Clear
4:53 PM 66.9 °F - 50.0 °F 54% 29.99 in 10.0 mi West 3.5 mph - N/A   Clear
5:53 PM 64.0 °F - 51.1 °F 63% 30.00 in 10.0 mi Calm Calm - N/A   Clear
6:53 PM 57.9 °F - 51.1 °F 78% 30.02 in 10.0 mi Calm Calm - N/A   Clear
7:53 PM 54.0 °F - 48.9 °F 83% 30.04 in 10.0 mi Calm Calm - N/A   Clear
8:53 PM 52.0 °F - 48.0 °F 86% 30.05 in 10.0 mi Calm Calm - N/A   Clear
9:53 PM 52.0 °F - 48.0 °F 86% 30.08 in 10.0 mi West 4.6 mph - N/A   Clear
10:53 PM 51.1 °F - 48.0 °F 89% 30.09 in 10.0 mi WSW 3.5 mph - N/A   Clear
11:53 PM 50.0 °F - 46.9 °F 89% 30.11 in 8.0 mi Calm Calm - N/A   Clear